When you browse on this site, cookies collect data to enhance your experience and personalize the content and advertising you see.
Visit our Privacy Policy to learn more. By continuing to use the site, you agree to this use of cookies and data.
  • In Netherlands
  • List of Countries
  • For 7 days
  • Water Temperature
  • Weather Map
  • Weather Widgets
  • user-avatar
    Login

    Hourly Weather Gabrovo

    Today, 19 September, Thursday

    Time Temperature Precipitation Wind Pressure Humidity
    00:00 +16°C° 0 mm 1 mps 704 mmHg 35%
    01:00 +16°C° 0 mm 1 mps 704 mmHg 38%
    02:00 +15°C° 0 mm 1 mps 704 mmHg 40%
    03:00 +14°C° 0 mm 1 mps 704 mmHg 42%
    04:00 +14°C° 0 mm 1 mps 704 mmHg 44%
    05:00 +13°C° 0 mm 1 mps 704 mmHg 46%
    06:00 +14°C° 0 mm 1 mps 704 mmHg 45%
    07:00 +15°C° 0 mm 1 mps 705 mmHg 44%
    08:00 +15°C° 0 mm 1 mps 705 mmHg 43%
    09:00 +16°C° 0 mm 1 mps 705 mmHg 48%
    10:00 +16°C° 0 mm 1 mps 705 mmHg 52%
    11:00 +18°C° 0 mm 1 mps 705 mmHg 57%
    12:00 +18°C° 0.2 mm 1 mps 705 mmHg 59%
    13:00 +17°C° 0.2 mm 2 mps 705 mmHg 61%
    14:00 +17°C° 0.2 mm 2 mps 704 mmHg 62%
    15:00 +17°C° 0 mm 2 mps 704 mmHg 62%
    16:00 +17°C° 0 mm 2 mps 704 mmHg 62%
    17:00 +17°C° 0 mm 2 mps 704 mmHg 61%
    18:00 +16°C° 0 mm 2 mps 704 mmHg 64%
    19:00 +15°C° 0 mm 2 mps 704 mmHg 67%
    20:00 +12°C° 0 mm 3 mps 704 mmHg 70%
    21:00 +12°C° 0.5 mm 2 mps 704 mmHg 75%
    22:00 +10°C° 0.5 mm 2 mps 704 mmHg 80%
    23:00 +9°C° 0.5 mm 2 mps 704 mmHg 85%

    Tomorrow, 20 September, Friday

    Time Temperature Precipitation Wind Pressure Humidity
    00:00 +9°C° 1.7 mm 2 mps 704 mmHg 87%
    01:00 +9°C° 1.7 mm 2 mps 704 mmHg 89%
    02:00 +9°C° 1.7 mm 2 mps 704 mmHg 91%
    03:00 +9°C° 0.4 mm 2 mps 704 mmHg 88%
    04:00 +9°C° 0.4 mm 2 mps 704 mmHg 85%
    05:00 +9°C° 0.4 mm 2 mps 704 mmHg 82%
    06:00 +9°C° 0.1 mm 2 mps 704 mmHg 77%
    07:00 +10°C° 0.1 mm 2 mps 704 mmHg 72%
    08:00 +10°C° 0.1 mm 2 mps 705 mmHg 67%
    09:00 +13°C° 0 mm 2 mps 705 mmHg 56%
    10:00 +14°C° 0 mm 2 mps 705 mmHg 45%
    11:00 +16°C° 0 mm 3 mps 706 mmHg 34%
    12:00 +17°C° 0 mm 3 mps 706 mmHg 31%
    13:00 +17°C° 0 mm 4 mps 706 mmHg 29%
    14:00 +18°C° 0 mm 4 mps 705 mmHg 27%
    15:00 +17°C° 0 mm 4 mps 705 mmHg 28%
    16:00 +17°C° 0 mm 4 mps 705 mmHg 29%
    17:00 +15°C° 0 mm 4 mps 705 mmHg 30%
    18:00 +13°C° 0 mm 3 mps 705 mmHg 36%
    19:00 +11°C° 0 mm 3 mps 706 mmHg 41%
    20:00 +9°C° 0 mm 2 mps 706 mmHg 47%
    21:00 +10°C° 0 mm 1 mps 706 mmHg 48%
    22:00 +9°C° 0 mm 1 mps 706 mmHg 48%
    23:00 +9°C° 0 mm 1 mps 707 mmHg 49%

    Day after tomorrow, 21 September, Saturday

    Time Temperature Precipitation Wind Pressure Humidity
    00:00 +9°C° 0 mm 1 mps 707 mmHg 48%
    01:00 +8°C° 0 mm 1 mps 707 mmHg 48%
    02:00 +8°C° 0 mm 1 mps 707 mmHg 48%
    03:00 +8°C° 0 mm 1 mps 707 mmHg 49%
    04:00 +7°C° 0 mm 0 mps 707 mmHg 50%
    05:00 +6°C° 0 mm 0 mps 707 mmHg 51%
    06:00 +8°C° 0 mm 0 mps 708 mmHg 48%
    07:00 +9°C° 0 mm 0 mps 708 mmHg 45%
    08:00 +11°C° 0 mm 0 mps 708 mmHg 42%
    09:00 +13°C° 0 mm 1 mps 709 mmHg 38%
    10:00 +15°C° 0 mm 1 mps 709 mmHg 35%
    11:00 +18°C° 0 mm 1 mps 710 mmHg 31%
    12:00 +19°C° 0 mm 1 mps 709 mmHg 29%
    13:00 +19°C° 0 mm 1 mps 709 mmHg 27%
    14:00 +20°C° 0 mm 1 mps 708 mmHg 26%
    15:00 +20°C° 0 mm 1 mps 708 mmHg 26%
    16:00 +20°C° 0 mm 1 mps 708 mmHg 27%
    17:00 +19°C° 0 mm 1 mps 707 mmHg 28%
    18:00 +16°C° 0 mm 1 mps 707 mmHg 32%
    19:00 +14°C° 0 mm 1 mps 707 mmHg 37%
    20:00 +12°C° 0 mm 1 mps 707 mmHg 42%
    21:00 +11°C° 0 mm 1 mps 707 mmHg 45%
    22:00 +9°C° 0 mm 2 mps 707 mmHg 49%
    23:00 +9°C° 0 mm 2 mps 707 mmHg 53%

    22 September, Sunday

    Time Temperature Precipitation Wind Pressure Humidity
    00:00 +8°C° 0 mm 2 mps 707 mmHg 56%
    01:00 +8°C° 0 mm 2 mps 706 mmHg 60%
    02:00 +8°C° 0 mm 1 mps 706 mmHg 63%
    03:00 +8°C° 0 mm 1 mps 706 mmHg 65%
    04:00 +8°C° 0 mm 1 mps 706 mmHg 66%
    05:00 +7°C° 0 mm 1 mps 706 mmHg 68%
    06:00 +9°C° 0 mm 1 mps 706 mmHg 63%
    07:00 +9°C° 0 mm 0 mps 706 mmHg 58%
    08:00 +11°C° 0 mm 0 mps 706 mmHg 53%
    09:00 +14°C° 0 mm 1 mps 706 mmHg 46%
    10:00 +16°C° 0 mm 1 mps 707 mmHg 40%
    11:00 +19°C° 0 mm 1 mps 707 mmHg 33%
    12:00 +20°C° 0 mm 1 mps 706 mmHg 31%
    13:00 +21°C° 0 mm 1 mps 706 mmHg 28%
    14:00 +22°C° 0 mm 1 mps 706 mmHg 26%
    15:00 +22°C° 0 mm 1 mps 705 mmHg 27%
    16:00 +22°C° 0 mm 1 mps 705 mmHg 28%
    17:00 +21°C° 0 mm 1 mps 705 mmHg 29%
    18:00 +19°C° 0 mm 1 mps 704 mmHg 33%
    19:00 +16°C° 0 mm 1 mps 704 mmHg 37%
    20:00 +14°C° 0 mm 1 mps 704 mmHg 42%
    21:00 +13°C° 0 mm 1 mps 704 mmHg 45%
    22:00 +12°C° 0 mm 1 mps 704 mmHg 48%
    23:00 +12°C° 0 mm 2 mps 704 mmHg 52%

    23 September, Monday

    Time Temperature Precipitation Wind Pressure Humidity
    00:00 +10°C° 0 mm 2 mps 704 mmHg 56%
    01:00 +10°C° 0 mm 1 mps 704 mmHg 60%
    02:00 +10°C° 0 mm 1 mps 704 mmHg 64%
    03:00 +10°C° 0 mm 1 mps 704 mmHg 65%
    04:00 +9°C° 0 mm 1 mps 704 mmHg 67%
    05:00 +9°C° 0 mm 1 mps 704 mmHg 68%
    06:00 +10°C° 0 mm 1 mps 704 mmHg 63%
    07:00 +11°C° 0 mm 0 mps 704 mmHg 58%
    08:00 +12°C° 0 mm 0 mps 704 mmHg 53%
    09:00 +16°C° 0 mm 1 mps 705 mmHg 47%
    10:00 +19°C° 0 mm 1 mps 705 mmHg 40%
    11:00 +20°C° 0 mm 2 mps 705 mmHg 34%
    12:00 +21°C° 0 mm 2 mps 704 mmHg 31%
    13:00 +23°C° 0 mm 2 mps 704 mmHg 29%
    14:00 +24°C° 0 mm 2 mps 703 mmHg 26%
    15:00 +24°C° 0 mm 2 mps 703 mmHg 27%
    16:00 +24°C° 0 mm 2 mps 702 mmHg 28%
    17:00 +24°C° 0 mm 2 mps 702 mmHg 29%
    18:00 +20°C° 0 mm 2 mps 702 mmHg 33%
    19:00 +18°C° 0 mm 2 mps 701 mmHg 36%
    20:00 +16°C° 0 mm 2 mps 701 mmHg 40%
    21:00 +16°C° 0 mm 2 mps 701 mmHg 44%
    22:00 +15°C° 0 mm 2 mps 701 mmHg 47%
    23:00 +15°C° 0 mm 1 mps 701 mmHg 51%

    24 September, Tuesday

    Time Temperature Precipitation Wind Pressure Humidity
    00:00 +15°C° 0 mm 1 mps 701 mmHg 52%
    01:00 +15°C° 0 mm 1 mps 701 mmHg 54%
    02:00 +15°C° 0 mm 1 mps 700 mmHg 55%
    03:00 +15°C° 0 mm 1 mps 700 mmHg 57%
    04:00 +15°C° 0 mm 1 mps 700 mmHg 59%
    05:00 +15°C° 0 mm 1 mps 700 mmHg 62%
    06:00 +16°C° 0 mm 1 mps 700 mmHg 59%
    07:00 +18°C° 0 mm 1 mps 701 mmHg 57%
    08:00 +17°C° 0 mm 2 mps 701 mmHg 54%
    09:00 +19°C° 0 mm 2 mps 701 mmHg 50%
    10:00 +21°C° 0 mm 2 mps 701 mmHg 46%
    11:00 +24°C° 0 mm 2 mps 702 mmHg 42%
    12:00 +25°C° 0 mm 2 mps 701 mmHg 40%
    13:00 +26°C° 0 mm 3 mps 701 mmHg 38%
    14:00 +27°C° 0 mm 4 mps 701 mmHg 36%
    15:00 +26°C° 0.1 mm 3 mps 701 mmHg 37%
    16:00 +24°C° 0.1 mm 3 mps 700 mmHg 38%
    17:00 +22°C° 0.1 mm 3 mps 700 mmHg 39%
    18:00 +20°C° 0 mm 3 mps 700 mmHg 41%
    19:00 +19°C° 0 mm 2 mps 700 mmHg 44%
    20:00 +17°C° 0 mm 2 mps 701 mmHg 46%
    21:00 +16°C° 0 mm 2 mps 701 mmHg 47%
    22:00 +16°C° 0 mm 2 mps 701 mmHg 47%
    23:00 +15°C° 0 mm 2 mps 701 mmHg 48%
    Show more